Temperature
20 19 19 19 19 18 18 18 18 18 18 18 18 17 17 17 17 17 17 17 16 16 16 16 16 16 16 16 16 16 15 15 15 15 15 15 15 15 15 15 15 15 15
20 19 19 19 18 18 18 18 18 18 17 17 17 17 17 17 16 16 16 16 16 16 16 16 16 16 16 16 15 15 15 15 15 15 15 15 15 15 15 15 15 15 15
20 19 19 19 18 18 18 18 17 17 17 17 17 17 16 16 16 16 16 16 16 15 15 15 15 15 15 15 15 15 15 15 15 14 15 15 15 15 15 15 15 14 14
19 19 19 18 18 18 17 17 17 17 17 17 16 16 16 16 16 16 16 15 15 15 15 15 15 15 15 15 15 15 15 14 14 14 14 14 14 14 14 14 14 14 14
19 19 18 18 18 17 17 17 17 17 16 16 16 16 16 16 15 15 15 15 15 15 15 15 15 15 15 15 15 14 14 14 14 14 14 14 14 14 14 14 14 14 14
19 19 18 18 17 17 17 17 16 16 16 16 16 16 15 15 15 15 15 15 15 15 15 15 15 14 15 14 14 14 14 14 14 14 14 13 14 13 13 13 13 13 13
19 18 18 18 17 17 17 16 16 16 16 16 15 15 15 15 15 15 15 15 15 14 14 14 14 14 14 14 14 14 14 14 13 13 13 13 13 13 13 13 13 13 13
18 18 17 17 17 17 16 16 16 16 15 15 15 15 15 15 15 14 14 14 14 14 14 14 14 14 14 13 13 14 13 13 13 13 13 13 13 13 13 13 13 12 12
18 17 17 17 16 16 16 16 15 15 15 15 15 15 14 14 14 14 14 14 14 14 14 13 13 13 13 13 13 13 13 13 13 13 13 13 13 13 13 12 12 12 12
17 17 17 16 16 16 15 15 15 15 15 15 14 14 14 14 14 14 14 14 13 13 13 13 13 13 13 13 13 13 13 13 13 13 13 13 12 12 12 12 12 12 12
17 17 16 16 16 15 15 15 15 14 14 14 14 14 14 14 14 14 13 13 13 13 13 13 13 13 13 13 13 13 12 12 12 12 12 12 12 12 12 12 12 12 12
17 16 16 16 15 15 15 15 14 14 14 14 14 14 13 13 13 13 13 13 13 13 13 13 13 12 12 12 12 12 12 12 12 12 12 12 12 12 12 12 12 11 11
16 16 16 15 15 15 14 14 14 14 14 14 13 13 13 13 13 13 13 13 13 13 13 12 12 12 12 12 12 12 12 12 12 12 12 12 12 12 11 11 11 11 11
15 15 15 15 14 14 14 14 14 13 13 13 13 13 13 13 13 13 12 12 12 12 12 12 12 12 12 12 12 12 12 11 11 11 11 11 11 11 11 11 11 11 11
15 14 14 14 14 14 14 14 13 13 13 13 13 13 13 12 12 12 12 12 12 12 12 12 12 12 12 11 11 11 11 11 11 11 11 11 11 11 11 11 11 11 10
14 14 14 14 13 13 13 13 13 13 13 13 13 13 12 12 12 12 12 12 12 12 11 11 11 11 11 11 11 11 11 11 11 11 11 10 11 10 11 11 10 10 10
14 14 13 13 13 13 13 13 13 13 13 13 13 12 12 12 12 12 12 11 11 11 11 11 11 11 11 10 10 10 10 10 10 10 10 10 10 10 10 10 10 10 10
13 13 13 13 13 13 13 13 13 13 13 12 12 12 12 12 12 12 11 11 11 11 11 10 10 10 10 10 10 10 10 10 10 10 10 10 10 10 10 10 10 10 10
13 13 13 13 13 12 12 12 12 12 12 12 12 12 12 11 11 11 11 11 11 10 10 10 10 10 10 10 10 10 10 10 10 9 9 9 10 10 10 10 10 10 10
13 13 12 12 12 12 12 12 12 12 12 12 12 11 11 11 11 11 11 10 10 10 10 10 10 10 9 9 9 9 9 9 9 9 9 9 9 9 9 9 10 10 10
12 12 12 12 12 12 12 12 12 11 11 11 11 11 11 11 11 10 10 10 10 10 10 10 9 9 9 9 9 9 9 9 9 9 9 9 9 9 9 9 9 9 9
12 12 12 12 12 12 11 11 11 11 11 11 11 11 11 10 10 10 10 10 10 10 9 9 9 9 9 9 8 8 8 8 8 8 8 8 8 9 9 9 9 9 9
12 12 12 12 11 11 11 11 11 11 11 11 10 10 10 10 10 10 10 9 9 9 9 9 9 9 9 8 8 8 8 8 8 8 8 8 8 8 8 8 9 9 9
11 11 11 11 11 11 11 11 10 10 10 10 10 10 10 10 10 9 9 9 9 9 9 9 9 8 8 8 8 8 8 8 8 8 8 8 8 8 8 8 8 8 8
11 11 11 11 11 11 11 10 10 10 10 10 10 10 10 9 9 9 9 9 9 8 9 8 8 8 8 8 7 7 7 7 8 7 7 7 8 8 8 8 8 8 8
11 11 11 11 10 10 10 10 10 10 10 9 9 9 9 9 9 9 8 8 8 8 8 8 8 8 7 7 7 7 7 7 7 7 7 7 8 8 8 8 8 8 8
Wind_Speed
6 5 4 4 4 3 3 3 2 2 2 2 2 2 2 2 1 1 2 1 1 2 2 1 3 3 2 2 1 1 2 3 4 4 2 2 2 2 3 4 5 5 5
6 5 4 4 3 3 3 3 2 2 2 2 2 2 2 2 1 1 2 1 1 2 2 2 3 2 2 2 1 2 2 3 4 4 3 3 3 3 3 3 3 3 4
6 5 4 4 4 4 4 3 2 2 2 2 2 3 3 2 2 2 2 2 2 3 2 2 3 2 2 2 2 2 3 2 2 3 3 3 3 2 1 2 3 2 4
5 5 5 5 5 4 4 3 3 3 2 3 3 3 3 3 2 2 1 2 2 2 2 2 3 3 3 3 3 3 3 2 2 2 3 3 3 2 1 2 3 3 3
5 5 5 4 3 3 3 3 3 2 3 2 2 2 2 2 2 2 2 2 2 2 3 3 3 3 4 3 3 3 3 2 2 2 3 3 3 2 3 2 3 3 4
5 5 4 4 3 3 3 2 2 2 2 1 2 2 2 2 2 2 2 2 2 2 3 3 4 3 4 4 4 4 4 4 4 3 3 4 5 4 3 3 2 2 3
5 4 4 4 3 3 3 2 2 2 2 2 2 2 2 3 3 3 3 2 2 3 3 3 3 3 3 3 4 4 4 5 5 4 4 5 5 5 4 3 3 4 5
4 3 3 3 3 2 2 3 3 3 2 2 3 3 3 4 4 4 4 2 2 3 3 3 2 3 3 2 2 2 3 4 5 4 5 6 6 5 5 5 5 4 4
3 3 3 3 3 3 3 4 3 3 3 3 3 3 3 4 4 4 2 1 2 3 3 2 2 3 4 2 1 2 4 5 5 6 5 6 6 6 4 2 2 2 4
4 3 3 3 3 3 4 3 2 3 3 3 3 3 3 3 3 2 2 1 2 3 3 3 4 5 5 4 3 3 4 5 4 5 4 5 4 5 5 4 4 4 3
3 3 2 3 3 3 3 2 2 2 2 2 2 2 2 3 2 2 1 2 3 3 3 3 4 5 6 6 4 4 7 6 4 3 3 4 3 3 4 3 4 5 4
2 2 2 2 2 2 2 2 1 1 1 2 2 2 3 3 2 3 3 4 4 4 4 4 5 6 6 5 4 5 6 4 2 2 3 4 4 4 4 4 5 5 6
1 1 1 1 1 1 2 2 1 1 2 2 2 3 3 3 3 4 3 4 5 4 4 6 6 6 4 4 5 5 3 2 2 3 4 5 5 5 3 3 4 4 5
1 1 1 1 1 1 1 2 2 2 2 2 2 3 3 2 2 2 2 3 3 3 3 5 5 4 2 3 4 3 2 2 3 4 5 5 4 3 3 3 3 3 3
0 1 1 1 2 2 2 2 3 4 4 5 4 4 3 3 5 5 3 2 2 3 2 2 2 2 2 3 3 3 3 2 3 3 4 4 4 4 4 3 3 3 3
1 1 1 2 2 2 2 2 3 4 5 6 7 5 4 5 5 4 4 3 3 2 1 1 2 2 3 3 3 3 3 4 4 4 4 4 4 4 4 3 2 3 4
2 3 2 2 2 3 3 3 3 4 3 3 5 5 5 4 4 4 4 3 2 2 1 2 3 3 3 3 3 4 4 5 4 4 4 4 4 4 4 4 3 4 4
2 3 3 3 3 3 3 3 3 3 2 2 3 5 5 4 4 3 2 1 2 1 1 2 3 3 3 3 3 4 4 4 3 4 4 4 4 4 4 5 4 5 5
2 2 3 3 3 3 3 2 2 2 2 2 2 2 4 4 3 2 1 1 2 3 3 3 3 3 3 3 3 3 3 3 4 4 4 5 4 4 5 5 5 5 4
3 4 3 2 2 2 2 2 2 2 2 3 3 3 1 0 1 1 2 2 3 3 3 3 3 3 2 3 3 3 3 3 3 3 4 5 4 4 5 5 5 4 4
3 3 3 2 3 3 3 3 3 3 3 3 4 4 4 2 3 3 3 3 3 3 3 2 2 2 2 2 2 2 3 3 3 3 4 4 4 4 4 4 4 4 3
2 2 2 3 3 2 3 3 3 3 3 3 3 2 3 2 2 3 3 3 3 3 3 2 2 2 2 1 2 2 3 3 4 4 4 4 4 4 4 3 3 2 2
2 2 2 2 2 3 3 3 3 3 3 3 3 2 2 2 3 3 2 2 2 2 1 1 1 1 1 1 1 2 3 4 4 4 4 4 4 4 4 4 3 2 2
2 2 2 2 2 2 3 3 3 3 3 3 3 3 3 3 3 3 2 2 1 1 1 1 2 2 2 2 2 2 2 4 5 4 5 5 5 4 3 3 3 3 3
2 2 3 2 2 2 2 2 3 3 3 3 3 2 3 2 2 2 2 1 1 1 1 1 1 1 1 2 3 3 4 5 5 5 4 3 4 4 3 3 3 3 2
2 3 2 2 2 2 2 2 2 1 1 1 1 2 2 2 2 2 2 1 1 1 1 1 1 1 1 2 3 3 4 5 6 7 4 3 3 3 3 3 3 2 2
Wind_Direction
172 178 176 180 175 160 165 185 196 208 203 199 202 195 205 226 240 246 270 280 274 283 292 275 266 259 262 271 247 218 213 191 226 268 262 268 258 272 268 259 254 243 249
172 177 183 179 173 173 185 199 198 208 212 206 202 204 218 230 239 244 270 282 258 272 285 289 281 276 271 259 238 234 230 208 204 247 268 263 259 254 249 262 265 267 262
170 175 180 180 180 192 201 206 203 212 224 220 210 218 231 231 225 233 236 254 250 251 250 250 264 265 277 270 254 246 246 238 209 221 257 259 262 271 270 278 280 275 272
171 174 181 192 195 201 206 210 210 209 219 228 226 226 227 224 217 220 245 260 263 266 256 248 254 241 251 258 258 244 237 237 228 230 251 263 260 262 249 268 285 276 275
167 174 188 194 190 194 206 214 211 212 224 230 235 244 242 229 229 227 245 253 267 286 284 271 264 268 264 253 254 238 222 227 233 240 254 266 264 255 251 247 255 275 276
166 179 183 183 186 191 202 206 215 229 236 232 232 232 251 259 264 241 231 251 257 264 276 284 283 288 287 281 277 257 228 221 228 229 241 242 250 244 243 240 233 259 280
170 177 179 183 185 194 199 193 213 224 232 234 235 229 249 262 258 251 241 230 236 244 246 263 286 300 304 297 298 299 269 251 231 213 224 236 239 238 232 240 233 230 250
171 175 178 172 183 192 187 208 226 227 219 227 240 238 240 267 267 259 248 228 244 254 247 244 253 276 283 271 291 307 287 271 255 236 225 237 238 233 223 226 229 243 263
168 182 186 178 187 199 210 222 229 227 232 232 234 230 233 268 278 263 223 214 248 265 258 255 239 258 277 278 286 288 295 293 286 274 259 254 253 252 233 206 224 234 270
181 189 197 189 199 214 223 225 226 226 233 234 248 245 234 255 285 287 211 198 248 269 276 270 262 260 269 266 245 251 275 282 292 299 296 296 282 272 255 219 209 219 245
177 178 189 195 197 204 217 220 229 236 237 238 245 260 252 255 296 306 218 201 231 249 265 275 275 276 277 277 263 242 250 261 270 268 275 281 285 277 267 245 218 208 223
148 159 183 198 203 209 208 234 226 212 221 237 249 271 272 270 260 264 255 244 236 229 248 260 270 281 281 282 277 267 269 270 264 267 273 274 271 266 263 254 239 233 231
114 172 197 206 215 202 198 220 233 221 217 233 235 248 270 281 280 275 274 268 255 246 258 266 274 283 286 277 278 282 284 267 259 264 267 268 263 261 261 265 266 259 261
130 221 202 192 234 232 212 204 204 217 222 228 236 247 263 269 276 290 286 277 287 283 288 295 298 297 300 292 300 300 281 257 252 256 264 268 271 269 261 254 258 262 266
164 242 236 219 213 222 243 238 226 226 217 212 220 218 217 245 252 240 228 249 258 261 277 308 319 322 315 312 314 311 300 302 288 274 270 277 278 273 270 262 242 239 240
201 260 238 226 225 225 235 288 299 268 255 228 216 209 228 235 252 246 250 256 262 238 176 261 271 268 270 274 280 290 288 286 280 276 274 273 272 270 275 274 253 240 245
215 241 249 238 229 229 224 222 269 312 320 284 243 225 228 243 255 259 269 279 269 158 149 256 264 265 266 266 267 268 271 273 271 270 270 273 275 274 274 270 262 254 252
236 245 247 243 234 229 226 227 223 221 257 297 289 256 247 242 249 259 262 42 356 335 253 261 272 276 273 272 271 269 272 281 280 276 274 275 275 271 269 265 255 250 251
253 256 254 252 244 235 234 233 230 223 228 247 276 290 262 258 272 276 165 172 233 259 266 268 267 269 275 275 275 284 287 287 292 290 284 281 280 276 271 268 260 252 243
257 263 258 250 244 234 226 223 225 215 221 232 239 251 260 93 287 272 235 233 237 247 254 261 265 263 271 285 290 294 302 306 310 301 294 289 284 278 272 267 263 255 246
258 271 267 261 246 232 221 214 212 212 224 240 242 239 196 198 225 235 239 239 238 243 246 247 253 259 269 289 297 298 298 301 302 301 303 304 305 299 286 272 263 251 246
258 255 243 243 245 239 234 225 216 218 225 232 249 261 213 211 236 243 247 249 246 240 237 224 233 248 252 277 299 301 295 297 303 307 307 307 305 303 299 291 281 269 249
257 252 245 251 248 241 234 225 218 218 224 225 228 223 213 226 238 243 249 257 256 255 247 213 226 260 285 316 310 281 284 287 289 292 298 300 300 296 293 287 276 275 260
260 247 244 249 241 232 231 229 222 215 213 224 229 218 211 217 227 238 248 253 248 248 225 217 227 234 264 305 304 289 283 292 296 287 278 277 284 287 289 291 278 261 257
262 257 249 237 232 231 232 234 232 228 226 226 222 212 209 210 220 231 235 240 242 238 229 220 227 247 288 309 314 315 306 305 304 303 291 277 279 283 282 282 271 265 258
262 255 245 235 227 218 215 221 224 223 231 248 245 214 204 210 218 222 223 213 243 254 253 241 230 263 313 326 324 330 327 323 320 317 309 290 284 289 290 279 266 260 261
Height
1513 1514 1515 1516 1516 1517 1517 1517 1517 1517 1517 1517 1516 1516 1515 1515 1514 1514 1513 1512 1511 1511 1510 1510 1509 1508 1508 1507 1506 1506 1505 1505 1504 1503 1504 1504 1504 1504 1503 1503 1503 1502 1502
1510 1512 1512 1513 1514 1514 1514 1515 1515 1515 1515 1514 1514 1513 1513 1512 1512 1511 1510 1509 1509 1508 1507 1507 1506 1505 1505 1504 1503 1502 1502 1501 1501 1500 1500 1500 1500 1500 1500 1500 1499 1499 1499
1508 1509 1510 1511 1511 1512 1512 1512 1512 1512 1512 1511 1511 1510 1510 1509 1509 1508 1508 1507 1506 1505 1504 1504 1503 1502 1501 1501 1500 1499 1499 1498 1498 1497 1496 1497 1496 1496 1496 1496 1495 1495 1495
1506 1507 1508 1508 1509 1509 1510 1509 1509 1509 1509 1508 1508 1507 1507 1506 1506 1505 1505 1504 1503 1502 1501 1500 1500 1499 1498 1498 1497 1496 1495 1494 1494 1494 1493 1492 1492 1492 1492 1491 1491 1491 1491
1503 1504 1505 1506 1506 1507 1507 1507 1507 1506 1506 1505 1505 1504 1504 1503 1503 1502 1502 1501 1500 1499 1498 1497 1496 1496 1495 1494 1493 1492 1492 1490 1490 1490 1489 1489 1488 1488 1488 1487 1487 1487 1486
1501 1502 1503 1503 1504 1503 1503 1504 1504 1504 1503 1503 1502 1502 1501 1501 1500 1499 1499 1498 1497 1496 1495 1494 1493 1492 1491 1491 1490 1489 1489 1487 1486 1486 1485 1485 1484 1484 1484 1484 1483 1482 1482
1499 1500 1500 1500 1501 1501 1501 1501 1501 1501 1500 1500 1499 1499 1498 1498 1497 1497 1496 1495 1494 1493 1492 1491 1490 1489 1488 1487 1486 1485 1485 1484 1484 1483 1482 1481 1481 1480 1480 1479 1479 1479 1478
1497 1498 1498 1498 1498 1498 1498 1498 1498 1498 1497 1496 1496 1496 1495 1495 1494 1494 1493 1493 1492 1491 1490 1488 1487 1486 1485 1484 1483 1482 1481 1481 1480 1479 1478 1477 1477 1477 1476 1476 1475 1475 1474
1496 1496 1496 1496 1496 1496 1496 1495 1495 1495 1494 1493 1493 1493 1492 1492 1492 1491 1490 1490 1489 1488 1487 1486 1485 1484 1483 1482 1480 1479 1478 1477 1477 1476 1475 1474 1474 1473 1473 1472 1471 1471 1469
1493 1494 1494 1494 1494 1494 1493 1493 1492 1492 1491 1490 1490 1490 1489 1489 1489 1488 1488 1487 1486 1485 1484 1483 1482 1481 1480 1479 1477 1476 1474 1473 1472 1471 1471 1470 1470 1469 1469 1468 1467 1467 1466
1492 1492 1492 1492 1491 1491 1491 1490 1490 1489 1488 1488 1487 1487 1486 1486 1485 1485 1485 1484 1482 1481 1480 1479 1478 1477 1476 1475 1474 1472 1471 1470 1469 1468 1467 1466 1465 1465 1464 1464 1463 1463 1462
1490 1490 1490 1489 1489 1488 1488 1487 1486 1486 1485 1485 1484 1484 1483 1483 1482 1481 1481 1480 1479 1478 1477 1476 1475 1474 1473 1472 1470 1469 1468 1467 1466 1464 1463 1462 1461 1460 1460 1460 1459 1458 1457
1488 1487 1487 1487 1486 1486 1485 1484 1483 1483 1482 1482 1481 1481 1480 1479 1479 1478 1477 1476 1476 1474 1473 1473 1472 1470 1469 1468 1467 1466 1465 1464 1462 1461 1459 1458 1457 1456 1456 1455 1454 1453 1452
1485 1485 1484 1484 1483 1483 1483 1482 1481 1480 1480 1479 1478 1478 1477 1476 1475 1474 1473 1473 1472 1471 1469 1469 1468 1467 1465 1464 1463 1462 1461 1460 1459 1457 1456 1455 1453 1452 1451 1450 1449 1448 1447
1483 1482 1482 1481 1481 1480 1480 1479 1478 1478 1477 1477 1476 1475 1474 1473 1472 1472 1470 1469 1468 1467 1466 1465 1463 1462 1461 1460 1459 1458 1457 1456 1455 1454 1452 1450 1449 1448 1447 1446 1445 1444 1443
1479 1479 1478 1478 1478 1477 1477 1476 1475 1475 1475 1474 1473 1473 1472 1471 1470 1469 1468 1466 1465 1464 1463 1461 1459 1459 1457 1456 1455 1454 1453 1452 1451 1449 1448 1446 1445 1443 1442 1441 1440 1439 1438
1476 1475 1475 1474 1474 1474 1473 1473 1472 1472 1471 1471 1470 1469 1469 1468 1467 1466 1464 1463 1462 1460 1459 1457 1456 1455 1454 1453 1452 1451 1450 1448 1447 1445 1443 1442 1441 1439 1438 1437 1436 1435 1433
1473 1472 1472 1471 1471 1470 1470 1469 1469 1468 1467 1467 1467 1466 1466 1465 1464 1463 1462 1460 1459 1457 1456 1454 1453 1452 1451 1449 1448 1447 1446 1444 1442 1441 1440 1438 1436 1435 1433 1432 1431 1430 1429
1470 1469 1468 1468 1467 1467 1467 1466 1466 1465 1464 1464 1463 1463 1462 1462 1461 1460 1458 1457 1456 1454 1453 1451 1450 1449 1447 1446 1445 1443 1442 1440 1438 1437 1435 1434 1432 1431 1429 1428 1427 1426 1425
1467 1466 1465 1465 1464 1464 1463 1463 1462 1462 1461 1460 1460 1459 1459 1458 1457 1456 1455 1454 1453 1451 1450 1448 1447 1445 1444 1442 1441 1439 1438 1436 1435 1433 1431 1430 1428 1426 1425 1423 1422 1421 1420
1463 1463 1462 1461 1461 1460 1460 1459 1459 1458 1458 1457 1457 1456 1456 1455 1454 1453 1452 1451 1449 1448 1447 1445 1444 1442 1441 1439 1438 1436 1435 1433 1431 1429 1427 1425 1424 1422 1420 1419 1418 1417 1417
1460 1459 1459 1458 1457 1457 1456 1456 1455 1455 1454 1454 1454 1453 1452 1452 1451 1450 1448 1447 1446 1445 1444 1442 1440 1439 1438 1436 1434 1433 1431 1430 1428 1426 1424 1422 1421 1419 1417 1416 1414 1413 1413
1457 1456 1455 1455 1454 1454 1453 1452 1452 1451 1451 1451 1450 1450 1449 1448 1447 1446 1445 1444 1443 1442 1440 1439 1437 1436 1434 1433 1431 1430 1428 1426 1425 1423 1421 1419 1417 1416 1414 1413 1411 1410 1410
1455 1453 1452 1451 1451 1450 1449 1449 1448 1448 1448 1447 1447 1446 1445 1445 1444 1443 1442 1441 1440 1439 1437 1436 1435 1433 1431 1430 1428 1427 1425 1423 1422 1420 1418 1416 1414 1413 1412 1410 1409 1408 1408
1452 1450 1449 1448 1448 1447 1446 1445 1445 1444 1444 1444 1443 1442 1441 1441 1441 1440 1439 1438 1437 1436 1434 1433 1431 1430 1428 1426 1425 1423 1422 1420 1418 1417 1415 1413 1411 1410 1409 1408 1407 1406 1406
1449 1448 1447 1446 1445 1444 1443 1442 1441 1441 1440 1440 1440 1439 1438 1438 1437 1437 1435 1434 1433 1432 1431 1429 1428 1426 1425 1424 1422 1420 1419 1417 1415 1414 1412 1410 1409 1408 1407 1405 1405 1404 1403